Погода Сенно

Погода Сенно : погода сейчас, прогноз погоды и архив. Всё, что Вы хотите узнать о погоде Сенно!

Хотите узнать прогноз погоды Сенно? Тогда Вам сюда: Погода Сенно

Поиск расширенной информации на нашем сайте:

Другие новости

Новости СМИ2

Главная страница сайта

Новости сайта

03.07.2017

Напоминаем, что на нашем специализированном сайте Метеоцентр.Азия вы можете получить высокодетализированные автоматические прогнозы погоды по пунктам России, СНГ и мира в авиационном формате (включающие направление и скорость ветра, видимость, явления погоды, количество и форму облачности, нижнюю и верхнюю границу облачности).

Рекомендуем: Все подробности Значение тату лев здесь.

Погода Сенно - сегодня

Время (UTC), дата Ветер
(°,м/с) 
Видим.   Явления Облачность Т
(°С)
Тd
(°С)
f(%) Тe
(°С)
Pmin
(гПа)
dP
(гПа)
Po
(мм)
O2
(г/м3)
Тmin Tmax R s Состояние
почвы
18 12.11.17 240 (ЮЗ) 2{10}  20000 м  {морось}  9/9 800 м 
[Sc]
+3.2 -1.2 73 +3  1004.2    737  294    +3.6  0.0     
06 13.11.17 210 (ЮЗ) 20000 м    9/9 600 м 
[Sc]
+2.5 -0.5 81 +3  1010.4    742  296  +2.4         
18 13.11.17 120 (ЮВ) 2500 м  слаб. снег{дождь} [диам. отлож. мокр. снега 7 мм]  10/10 180 м 
[Frnb|Ns]
+0.2 -0.4 96 +1  1008.4    740  298    +3.6   
06 14.11.17 320 (СЗ) 15000 м  {снег} [диам. отлож. мокр. снега 40 мм]  10/10 180 м 
[Frnb]
+0.2 -0.4 96 +1  1010.6    741  299  +0    равномерный
мокрый или
старый снег
100% 
18 14.11.17 220 (ЮЗ) 10 км  {дождь}  9/9 600 м 
[Sc]
+1.1 +0 92 +2  1019.2    748  300    +1.1  0.0   
06 15.11.17 210 (ЮЗ) 15000 м    10/10 240 м 
[Frnb]
+0.8 -0.9 88 -1  1019.6    748  301  +0.7      мокрый или
старый снег
50-90% 
18 15.11.17 240 (ЮЗ) 5000 м  слаб. дождь{снег}  10/10 180 м 
[Frnb|Ns]
+3.2 +2.2 93 +2  1019    748  298    +3.2  0.9     
06 16.11.17 250 (З) 3{11}  20000 м  {дождь}  8/8 600 м 
[Sc]
+4.1 +1.8 85 +3  1020.5    749  297  +3.2       
18 16.11.17 200 (Ю) 1{11}  20000 м    ясно 
+1.6 -0 89 +2  1024.3    752  301    +6.2       
06 17.11.17 210 (ЮЗ) 15000 м    9/9 840 м 
[Sc]
+0.7 -1 88 1023    751  302  -0.4         
18 17.11.17 220 (ЮЗ) 3{11}  5000 м  слаб. дождь  10/10 270 м 
[Frnb|Ns]
+1.5 +0.1 90 1018.5    747  299    +3.4     
06 18.11.17 210 (ЮЗ) 10 км  {дождь}  9/9 700 м 
[Sc]
+1.8 +0.2 89 +3  1017.9    747  299  +1.3    0.0     
18 18.11.17 190 (Ю) 15000 м    9/9 800 м 
[Sc]
+1.7 -0.2 87 +2  1012.7    743  298    +4.2       
06 19.11.17 220 (ЮЗ) 10 км    10/10 210 м 
[Frnb]
+0.2 -0.9 92 -1  1007.1    739  298  -1.2         
18 19.11.17 210 (ЮЗ) 8000 м  слаб. снег{дождь}  10/10 180 м 
[Frnb|Ns]
+0.7 -0.4 92 1004.6    737  296    +1.5     
06 20.11.17 180 (Ю) 10 км  {снег}  9/9 750 м 
[Sc]
+1.3 -0.1 90 +1  1007.3    739  296  +0.7    0.4     
18 20.11.17 150 (ЮВ) 20000 м    9/9 800 м 
[Sc]
+1.5 -1 83 +2  1008.4    740  297    +2.9       
06 21.11.17 150 (ЮВ) 7000 м  дымка{снег, дождь}  10/10 240 м 
[Frnb]
-0.4 -1.3 94 1008.8    740  299  -0.4    0.4     
18 21.11.17 170 (Ю) 15000 м    9/9 840 м 
[Sc]
-0.2 -1.7 90 1010.9    742  299    +1.3       
06 22.11.17 280 (З) 20000 м    10/10 270 м 
[Frnb]
-0.3 -1.8 90 1013.3    743  300  -0.9         
18 22.11.17 290 (З) 15000 м    ясно 
-1.2 -2.5 91 -1  1018.2    747  303    +1.3       
06 23.11.17 100 (В) 15000 м    10/10 360 м 
[Frnb]
-2.4 -4.7 84 -2  1021.8    750  305  -2.9         
18 23.11.17 150 (ЮВ) 15000 м    9/0 средняя 
[Ac und]
-2 -4.1 85 -3  1021.9    750  305    -1       
06 24.11.17 140 (ЮВ) 10 км    9/0 средняя 
[Ac und]
-2.2 -4 87 -4  1020.3    749  304  -3.5         
18 24.11.17 170 (Ю) 15000 м    9/9 660 м 
[Sc]
-1.1 -3.4 84 -3  1019.3    748  303    -0.3       
Время (UTC), дата Ветер
(°,м/с) 
Видим.   Явления Облачность Т
(°С)
Тd
(°С)
f(%) Тe
(°С)
Pmin
(гПа)
dP
(гПа)
Po
(мм)
O2
(г/м3)
Тmin Tmax R s Состояние
почвы

Для получения пояснительной информации подведите курсор к названию столбца.

ПОГОДА Сенно - архив

Всё, что Вы хотите узнать о погоде Сенно - удобно и подробно!

Выберите нужную дату (начиная с 1 января 2015* года) и нажмите кнопку "Найти".
Будут отображены архивные сводки погоды по пункту Сенно, начиная с указанной даты.


Отображать данные в формате CSV (для использования в таблицах Excel)


Внимание! Наш архив погоды предназначен исключительно для личного некоммерческого использования в познавательных целях. Если Вам необходимы официальные справки о состоянии погоды (для производственных, юридических, коммерческих и т.п. целей), обращайтесь в органы Росгидромета.

*Примечание: данная дата относится к архиву по метеостанциям СССР (Россия, СНГ, Балтия).
Архив по метеостанциям Зарубежной Европы и Азии (кроме Китая) хранится 10 дней, по другим регионам земного шара (Китай, Африка, Америка, Австралия, Океания) - 1 день.

Сенно - район местоположения метеостанции


Название, широта, долгота, высота метеостанции:
Сенно 54.8°ш. 29.7°д. 176 м над ур. моря [Беларусь]

Дополнительная информация

В oтличие oт бoльшинства пoгoдных сайтoв мы публикуем пoдрoбную метеoинфoрмацию в детальнoм прoфессиoнальнoм фoрмате.

Характеристики температуры и влажнoсти вoздуха измеряются на высoте 2 м в тени вдали oт зданий и деревьев.
Скoрoсть ветра измеряется на высoте 10 м (на урoвне рoста челoвека скoрoсть ветра ниже в 1.5-2 раза). Если метеoстанция нахoдится в гoрoде или в лесу, тo скoрoсть ветра занижена на 2-4 м/с пo сравнению с oткрытым местoм. Скoрoсть ветра над акватoриями крупных рек и oзёр, а также на вершинах хoлмoв на 2-5 м/с выше, чем в oбычных услoвиях.
Атмoсфернoе давление в разных тoчках местнoсти мoжет значительнo oтличаться oт давления на метеoстанции, в зависимoсти oт услoвий рельефа (при пoдъёме на 10 м давление пoнижается примернo на 1 мм рт.ст.).